Simultaneous Nadir Overpasses (SNOs) Predictions

Prediction of SNOs between GOES-16 and NOAA-20 Satellite Orbit:

Table of predicted SNOs for the next 14.0 days since TLE Epoch: 2/25/2023
Index Date Time (GOES-16) GOES-16 Lat,Lon NOAA-20 Lat,Lon Distance(km) Time Diff (sec)
1 02/25/2023 18:10:37 0.07, -75.19 0.95, -71.17 457.77 80
2 02/27/2023 06:32:26 -0.07, -75.20 0.23, -76.44 142.22 80
3 02/28/2023 06:11:03 -0.06, -75.20 -0.78, -71.91 374.38 80
4 03/01/2023 18:33:01 0.06, -75.21 -0.39, -77.23 229.84 80
5 03/02/2023 18:16:58 0.06, -75.22 0.63, -72.70 287.21 80
6 03/04/2023 06:38:47 -0.05, -75.24 0.55, -77.97 311.46 80
7 03/05/2023 06:17:23 -0.05, -75.25 -0.47, -73.45 205.92 80
8 03/06/2023 18:42:01 0.04, -75.26 -0.75, -78.75 397.03 80
9 03/07/2023 18:20:37 0.04, -75.28 0.28, -74.22 120.88 80
10 03/09/2023 06:45:07 -0.03, -75.31 0.89, -79.49 476.34 80
11 03/10/2023 06:23:43 -0.04, -75.33 -0.13, -74.97 41.73 80
